CST,Max TemperatureF,Mean TemperatureF,Min TemperatureF,Max Dew PointF,MeanDew PointF,Min DewpointF,Max Humidity, Mean Humidity, Min Humidity, Max Sea Level PressureIn, Mean Sea Level PressureIn, Min Sea Level PressureIn, Max VisibilityMiles, Mean VisibilityMiles, Min VisibilityMiles, Max Wind SpeedMPH, Mean Wind SpeedMPH, Max Gust SpeedMPH,PrecipitationIn, CloudCover, Events, WindDirDegrees
2013-2-1,86,64,42,36,31,27,66,32,12,30.32,30.18,29.88,10,9,6,9,4,,0.00,1,,306
2013-2-2,87,66,46,36,33,28,58,33,14,30.33,30.15,29.76,10,9,8,18,4,,0.00,2,,79
2013-2-3,82,65,48,32,25,21,41,24,10,30.35,30.13,29.82,10,9,8,9,6,,0.00,1,,111
2013-2-4,84,66,48,45,34,27,58,33,13,30.30,30.05,29.71,10,9,8,17,6,,0.00,1,,264
2013-2-5,84,64,44,36,29,27,53,30,12,30.29,30.07,29.63,10,9,6,8,3,,0.00,1,,36
2013-2-6,86,66,46,37,30,23,53,31,10,30.27,30.07,29.73,10,9,8,16,4,,0.00,0,,274
2013-2-7,86,67,48,32,27,21,46,25,10,30.29,30.11,29.77,10,9,7,16,4,,0.00,0,,293
2013-2-8,87,68,48,32,28,23,43,26,14,30.29,30.09,29.75,10,9,7,9,4,,0.00,1,,55
2013-2-9,84,66,48,45,38,32,71,40,18,30.30,30.09,29.74,10,8,6,14,5,,0.00,1,,231
2013-2-10,84,66,48,45,36,27,71,38,13,30.30,30.10,29.74,10,9,8,22,5,,0.00,0,,244
2013-2-11,84,64,44,37,32,27,71,37,12,30.32,30.14,29.81,10,8,6,14,3,,0.00,0,,267
2013-2-12,87,66,46,34,30,19,57,31,10,30.29,30.09,29.72,10,9,7,16,3,,0.00,1,,243
2013-2-13,87,66,46,39,34,30,57,34,13,30.44,30.04,29.62,10,8,4,25,5,29,0.00,2,,225
2013-2-14,82,64,46,37,28,10,62,31,9,30.21,30.02,29.71,10,9,7,20,4,,0.00,1,,274
2013-2-15,80,63,46,39,30,21,66,32,11,30.27,30.07,29.77,10,9,7,7,2,,0.00,3,,299
2013-2-16,80,62,44,43,38,25,81,47,21,30.32,30.16,29.89,10,9,8,16,6,,0.00,2,,77
2013-2-17,82,62,42,41,36,32,76,46,17,30.32,30.15,29.79,10,9,8,14,4,,0.00,1,,243
2013-2-18,86,65,44,32,27,19,57,28,9,30.29,30.10,29.78,10,9,7,17,3,,0.00,0,,302
2013-2-19,87,66,44,32,28,23,46,26,11,30.29,30.10,29.76,10,9,7,14,3,,0.00,3,,98
2013-2-20,84,67,50,36,32,25,50,30,11,30.24,30.03,29.65,10,9,8,14,4,28,0.00,5,,247
2013-2-21,82,66,50,37,34,30,54,31,15,30.19,29.98,29.67,10,9,6,17,7,30,0.00,3,,252
2013-2-22,84,66,48,41,34,25,66,36,11,30.24,30.03,29.67,10,9,8,16,4,,0.00,4,,248
2013-2-23,84,66,48,41,33,27,58,33,12,30.21,29.99,29.60,10,9,7,17,3,,0.00,1,,255
2013-2-24,84,65,46,39,33,27,62,34,12,30.18,29.96,29.60,10,9,8,22,6,25,0.00,4,,244
2013-2-25,84,66,48,45,29,9,66,33,6,30.15,29.91,29.56,10,9,8,23,6,29,0.00,4,,265
2013-2-26,86,67,48,34,29,25,46,26,12,30.12,29.93,29.57,10,9,8,21,4,28,0.00,5,,245
2013-2-27,87,66,46,36,28,14,53,28,7,30.24,30.01,29.53,10,9,8,10,2,,0.00,3,,232
2013-2-28,89,68,48,43,38,30,66,37,17,30.24,30.00,29.64,10,9,8,20,3,,0.00,2,,247